[[{"header":{"parameterUnit":"m.s-1","parameterCategory":1,"la1":30.2991,"la2":30.254,"lo1":-89.0895,"lo2":-89.0444,"dy":0.0017,"dx":0.0017,"nx":28,"ny":28,"refTime":"2025-04-10T03:00:00:Z","depth":0,"parameterNumber":2,"parameterNumberName":"U-component_of_WINDS"},"data":[0,0,0,0,0,0,0,0,0,0,0,0,0,0,0,0,0,0,0,0,0,0,0,0,0,0,0,0,0,0,0,0,0,0,0,0,0,0,0,0,0,0,0,0,0,0,0,0,0,0,0,0,0,0,0,0,0,0,2.9244,2.9246,0,2.9399,2.9401,2.9403,2.9388,2.9385,2.9383,2.9381,2.9541,2.9547,2.9554,0,0,0,0,0,0,0,0,0,0,0,0,0,2.8935,2.8941,2.9244,2.9246,2.9248,2.9399,2.9401,2.9403,2.9388,2.9385,2.9382,2.9379,2.9539,2.9547,2.9554,0,0,0,0,0,0,0,0,0,0,0,0,0,2.9078,2.8943,2.9244,2.9258,2.9261,2.9399,2.9401,2.9404,2.9389,2.9385,2.9381,2.9378,2.9536,2.9546,2.9555,2.9688,0,0,2.9585,2.959,0,0,0,0,0,0,0,0,2.907,2.9089,2.9254,2.9258,2.9261,2.937,2.9351,2.9499,2.939,2.934,2.938,2.9376,2.9487,2.9501,2.9538,2.9696,2.9703,2.9586,2.9592,2.9596,2.9599,0,0,0,0,0,0,0,2.906,2.9083,2.9305,2.9257,2.9261,2.9258,2.9274,2.9379,2.9432,2.9344,2.9344,2.9362,2.9488,2.9529,2.9542,2.9705,2.9586,2.9595,2.9601,2.9604,2.9981,2.9985,0,0,0,0,0,0,2.9046,2.9074,2.93,2.931,2.9155,2.9266,2.9284,2.9339,2.9431,2.9442,2.9365,2.9361,2.9514,2.953,2.9547,2.9709,2.9596,2.9605,2.9611,2.9977,2.9982,2.9986,0,0,0,0,0,0,2.904,2.9067,2.9294,2.9192,2.9221,2.9275,2.9337,2.9344,2.9384,2.9447,2.9456,2.9396,2.9511,2.9533,2.9654,2.9715,2.961,2.9619,2.9972,2.9978,2.9984,3.0034,0,0,0,0,0,0,2.9031,2.9064,2.9115,2.9193,2.9226,2.9398,2.9341,2.935,2.9401,2.9397,2.9479,2.9489,2.951,2.9639,2.9663,2.9726,2.9626,2.9967,2.9975,2.9982,3.0028,3.0042,3.0054,0,0,0,0,0,2.902,2.9123,2.9118,2.9145,2.9291,2.9401,2.942,2.9442,2.9406,2.9458,2.9498,2.9486,2.9704,2.9651,2.9679,2.9745,2.9963,2.9972,2.9981,3.0022,3.0039,3.0053,0,0,0,0,0,0,2.9051,2.9134,2.9129,2.926,2.9324,2.9398,2.9464,2.946,2.9535,2.9528,2.9553,2.9572,2.9693,2.9731,2.9671,2.9879,2.9829,2.9844,2.985,2.9867,2.9879,2.9868,2.9635,0,0,0,0,0,2.9073,2.9156,2.9224,2.9333,2.9365,2.9409,2.9458,2.947,2.9537,2.9564,2.9613,2.9679,2.9762,2.9817,2.9897,3.0033,3.0051,3.0093,3.0105,3.0116,3.0129,3.0204,3.0223,3.0017,3.0017,3.0016,0,0,2.912,2.9175,2.9226,2.9341,2.9391,2.9476,2.9432,2.9524,2.9587,2.9578,2.9694,2.9733,2.9808,2.9937,2.9996,2.9972,3.019,3.0128,3.0135,3.0143,3.0216,3.0235,3.0252,3.0023,3.0022,3.0021,0,0,2.9249,2.9299,2.9396,2.9447,2.9524,2.9553,2.9576,2.9652,2.9677,2.9794,2.9789,2.9865,3.0008,3.0062,3.0108,3.0257,3.025,3.0283,3.0351,3.0424,3.044,3.0455,3.0508,3.0527,3.0296,3.0296,3.0296,0,2.9297,2.9425,2.9446,2.9539,2.959,2.9585,2.9684,2.9733,2.9832,2.9868,2.984,3.0019,3.007,3.0211,3.0248,3.0285,3.0313,3.0274,3.0436,3.0451,3.0465,3.0516,3.0536,3.0299,3.0299,3.0298,3.0298,0,2.9481,2.9569,2.9638,2.9734,2.9793,2.9888,2.9924,2.9981,2.9988,3.002,3.014,3.02,3.0292,3.0327,3.0334,3.047,3.0453,3.043,3.038,3.0488,3.0537,3.0556,3.0304,3.0303,3.0302,3.0301,0,0,2.9633,2.974,2.9765,2.9808,2.9893,2.9962,3.0057,3.0147,3.0196,3.0265,3.0346,3.0467,3.0447,3.0499,3.0513,3.0577,3.0692,3.0547,3.0549,3.0572,3.0846,3.0862,3.0884,3.0688,3.0691,3.0695,3.0839,0,2.977,2.9938,2.9961,3.011,3.0192,3.0189,3.0272,3.0333,3.0366,3.0441,3.0477,3.0562,3.0529,3.0561,3.0624,3.0665,3.0748,3.0655,3.0763,3.0767,3.0745,3.091,3.0927,3.1061,3.0858,3.0862,3.0864,0,2.9953,3.0026,3.0183,3.0257,3.0293,3.0367,3.0451,3.0523,3.0593,3.0612,3.067,3.0676,3.0776,3.0721,3.0858,3.0795,3.0841,3.0867,3.0873,3.0884,3.0822,3.0925,3.1104,3.1124,3.0894,3.0892,3.089,0,3.0048,3.0187,3.0299,3.0336,3.0425,3.0477,3.0517,3.0583,3.0636,3.071,3.0744,3.0829,3.0876,3.0942,3.097,3.0928,3.1106,3.1054,3.1125,3.1125,3.1163,3.116,3.1352,3.1192,3.1192,3.1192,3.1191,0,3.0199,3.0296,3.0343,3.0412,3.052,3.0545,3.0652,3.0689,3.0748,3.0825,3.0827,3.0899,3.0933,3.101,3.1034,3.1144,3.1165,3.1184,3.1189,3.1184,3.1181,3.1214,3.1205,3.1197,3.1196,3.1195,3.1194,0,3.0324,3.036,3.0482,3.0556,3.0577,3.0653,3.0717,3.0784,3.0816,3.0913,3.0937,3.0987,3.1078,3.1114,3.1225,3.1241,3.1368,3.1366,3.1344,3.1346,3.1415,3.1408,3.1634,3.1666,3.1486,3.1487,3.1489,0,3.0418,3.0493,3.0574,3.0626,3.0667,3.0749,3.0803,3.0831,3.0887,3.0972,3.1029,3.112,3.1194,3.134,3.1386,3.1472,3.1472,3.1545,3.1485,3.1477,3.1473,3.1468,3.1476,3.1556,3.1558,3.156,3.1561,0,3.0582,3.0596,3.0673,3.0756,3.082,3.0888,3.0953,3.0995,3.1033,3.1096,3.1189,3.1246,3.136,3.145,3.1538,3.1579,3.1577,3.1579,3.1601,3.1596,3.1581,3.159,3.1375,3.1574,3.1573,3.1572,3.1571,3.1571,3.0695,3.076,3.0828,3.0914,3.0966,3.1027,3.1094,3.1134,3.1212,3.1306,3.1318,3.1417,3.1486,3.1603,3.1649,3.1727,3.1708,3.1739,3.1746,3.1753,3.1758,3.1568,3.1744,3.1743,3.1743,3.1743,3.1742,0,3.0858,3.0901,3.098,3.1071,3.1139,3.113,3.1202,3.126,3.1347,3.1411,3.1484,3.1591,3.1678,3.1732,3.182,3.1873,3.1874,3.1895,3.1892,3.1901,3.177,3.1743,3.1893,3.1893,3.1893,3.1893,3.1893,3.1893,3.0951,3.1062,3.1084,3.122,3.1263,3.1361,3.1403,3.1459,3.151,3.1629,3.1702,3.1736,3.1796,3.1889,3.1969,3.1982,3.2015,3.2038,3.205,3.1926,3.1911,3.1896,3.187,3.2044,3.2045,3.2174,3.2175,3.2176]},{"header":{"parameterUnit":"m.s-1","parameterCategory":1,"la1":30.2991,"la2":30.254,"lo1":-89.0895,"lo2":-89.0444,"dy":0.0017,"dx":0.0017,"nx":28,"ny":28,"refTime":"2025-04-10T03:00:00:Z","depth":0,"parameterNumber":3,"parameterNumberName":"V-component_of_WINDS"},"data":[0,0,0,0,0,0,0,0,0,0,0,0,0,0,0,0,0,0,0,0,0,0,0,0,0,0,0,0,0,0,0,0,0,0,0,0,0,0,0,0,0,0,0,0,0,0,0,0,0,0,0,0,0,0,0,0,0,0,-2.1103,-2.1105,0,-2.1277,-2.1279,-2.1281,-2.1321,-2.132,-2.1319,-2.1317,-2.1499,-2.1504,-2.151,0,0,0,0,0,0,0,0,0,0,0,0,0,-2.0808,-2.0813,-2.1103,-2.1105,-2.1107,-2.1277,-2.1279,-2.1282,-2.1321,-2.132,-2.1318,-2.1317,-2.1497,-2.1504,-2.1511,0,0,0,0,0,0,0,0,0,0,0,0,0,-2.0954,-2.0815,-2.1102,-2.1147,-2.1153,-2.1276,-2.1279,-2.1282,-2.1321,-2.132,-2.1318,-2.1316,-2.1494,-2.1503,-2.1512,-2.1604,0,0,-2.1539,-2.1543,0,0,0,0,0,0,0,0,-2.0946,-2.0965,-2.1138,-2.1144,-2.1151,-2.1275,-2.1242,-2.139,-2.1322,-2.1258,-2.1317,-2.1315,-2.1426,-2.144,-2.1477,-2.1612,-2.162,-2.154,-2.1545,-2.1549,-2.1552,0,0,0,0,0,0,0,-2.0936,-2.0958,-2.1172,-2.1141,-2.1149,-2.116,-2.1179,-2.127,-2.135,-2.1263,-2.1266,-2.1286,-2.1429,-2.1469,-2.1482,-2.1623,-2.154,-2.1548,-2.1553,-2.1557,-2.1843,-2.1846,0,0,0,0,0,0,-2.0917,-2.0949,-2.1166,-2.1177,-2.1042,-2.1167,-2.1188,-2.1237,-2.1349,-2.1364,-2.1288,-2.1287,-2.1454,-2.1471,-2.1488,-2.1604,-2.1549,-2.1558,-2.1563,-2.1841,-2.1844,-2.1846,0,0,0,0,0,0,-2.0911,-2.0936,-2.1159,-2.1064,-2.1093,-2.1174,-2.1229,-2.1242,-2.1281,-2.1368,-2.1382,-2.1313,-2.1453,-2.1476,-2.1575,-2.1611,-2.1562,-2.157,-2.1839,-2.1842,-2.1845,-2.1835,0,0,0,0,0,0,-2.0902,-2.0934,-2.0968,-2.1065,-2.1098,-2.1241,-2.1231,-2.1246,-2.1296,-2.1298,-2.1395,-2.141,-2.1454,-2.1561,-2.1584,-2.1622,-2.1577,-2.1836,-2.184,-2.1844,-2.1833,-2.1838,-2.1842,0,0,0,0,0,-2.0892,-2.0959,-2.097,-2.0996,-2.1143,-2.1243,-2.1263,-2.1311,-2.1299,-2.1335,-2.1391,-2.1407,-2.1603,-2.1571,-2.1597,-2.1638,-2.1834,-2.1839,-2.1844,-2.183,-2.1837,-2.1842,0,0,0,0,0,0,-2.0866,-2.0972,-2.0986,-2.1086,-2.1155,-2.125,-2.1297,-2.1316,-2.1391,-2.1389,-2.1447,-2.1469,-2.1564,-2.1612,-2.1574,-2.1734,-2.1718,-2.1729,-2.1699,-2.1706,-2.1711,-2.1697,-2.1584,0,0,0,0,0,-2.0871,-2.0943,-2.1033,-2.1113,-2.1147,-2.1216,-2.1261,-2.1293,-2.1367,-2.1397,-2.146,-2.1533,-2.1611,-2.1661,-2.1738,-2.184,-2.1863,-2.1882,-2.1886,-2.189,-2.1898,-2.1957,-2.1966,-2.1863,-2.1863,-2.1863,0,0,-2.0885,-2.0952,-2.0993,-2.1109,-2.1167,-2.1241,-2.124,-2.1318,-2.1374,-2.1409,-2.1506,-2.1555,-2.164,-2.1741,-2.1789,-2.1784,-2.1932,-2.1896,-2.1898,-2.1905,-2.1963,-2.1972,-2.1981,-2.1866,-2.1866,-2.1865,0,0,-2.0946,-2.1003,-2.1077,-2.1134,-2.1221,-2.1267,-2.1284,-2.1377,-2.141,-2.1509,-2.1537,-2.1605,-2.1738,-2.1798,-2.1846,-2.1931,-2.1949,-2.1955,-2.198,-2.2036,-2.2044,-2.2052,-2.2083,-2.2093,-2.1963,-2.1963,-2.1963,0,-2.0951,-2.1062,-2.1112,-2.1189,-2.124,-2.1275,-2.135,-2.1404,-2.1512,-2.1546,-2.1539,-2.1707,-2.1767,-2.1883,-2.1904,-2.1942,-2.1964,-2.1944,-2.2039,-2.2047,-2.2055,-2.2085,-2.2097,-2.1963,-2.1963,-2.1963,-2.1963,0,-2.1065,-2.1142,-2.1191,-2.1293,-2.135,-2.1426,-2.1488,-2.154,-2.1566,-2.1613,-2.1714,-2.1787,-2.188,-2.191,-2.1937,-2.2031,-2.2024,-2.2027,-2.2012,-2.2064,-2.2093,-2.2105,-2.1963,-2.1963,-2.1963,-2.1963,0,0,-2.1114,-2.1243,-2.1261,-2.1308,-2.1407,-2.1468,-2.1546,-2.1636,-2.1679,-2.1753,-2.1821,-2.1934,-2.1937,-2.1991,-2.2026,-2.2075,-2.214,-2.2073,-2.2076,-2.2083,-2.2248,-2.2245,-2.2258,-2.2152,-2.2155,-2.2157,-2.2241,0,-2.1187,-2.1327,-2.1374,-2.149,-2.1563,-2.1597,-2.1666,-2.1735,-2.1781,-2.1851,-2.1903,-2.1982,-2.198,-2.2013,-2.2064,-2.2121,-2.2174,-2.2116,-2.2217,-2.222,-2.2194,-2.2273,-2.227,-2.2347,-2.2253,-2.2255,-2.2257,0,-2.1291,-2.1366,-2.1488,-2.1579,-2.1611,-2.1672,-2.1759,-2.1824,-2.1904,-2.1934,-2.1995,-2.2027,-2.2111,-2.2092,-2.221,-2.217,-2.2215,-2.2249,-2.2253,-2.2264,-2.2241,-2.2287,-2.2372,-2.2383,-2.2275,-2.2274,-2.2272,0,-2.1315,-2.1446,-2.1537,-2.1576,-2.1684,-2.1726,-2.1773,-2.1851,-2.1902,-2.1979,-2.2013,-2.2099,-2.2146,-2.2212,-2.2266,-2.2247,-2.238,-2.2365,-2.2409,-2.2408,-2.2435,-2.2432,-2.2529,-2.2464,-2.2464,-2.2463,-2.2463,0,-2.1392,-2.1465,-2.1549,-2.1604,-2.1689,-2.1744,-2.1826,-2.1876,-2.1945,-2.2012,-2.2048,-2.2111,-2.2178,-2.225,-2.2294,-2.2385,-2.2407,-2.2434,-2.2445,-2.2431,-2.2428,-2.2461,-2.2457,-2.2466,-2.2466,-2.2465,-2.2465,0,-2.1432,-2.149,-2.1591,-2.1686,-2.1711,-2.1769,-2.1851,-2.1907,-2.1955,-2.204,-2.2063,-2.2139,-2.2226,-2.2287,-2.2399,-2.2428,-2.2527,-2.2537,-2.25,-2.2505,-2.2545,-2.2541,-2.2666,-2.2686,-2.2607,-2.2608,-2.2609,0,-2.1477,-2.1534,-2.1635,-2.1682,-2.1729,-2.1804,-2.1857,-2.1914,-2.1967,-2.2063,-2.2108,-2.2197,-2.2271,-2.2409,-2.2475,-2.2561,-2.2574,-2.2612,-2.2587,-2.2571,-2.2575,-2.2571,-2.2577,-2.2615,-2.2616,-2.2616,-2.2617,0,-2.155,-2.1577,-2.165,-2.1735,-2.1797,-2.1866,-2.1936,-2.1973,-2.2043,-2.2102,-2.219,-2.2248,-2.2362,-2.245,-2.2543,-2.2593,-2.2617,-2.2624,-2.2639,-2.2625,-2.2601,-2.2615,-2.251,-2.2621,-2.262,-2.262,-2.262,-2.262,-2.1595,-2.1648,-2.1727,-2.1808,-2.1867,-2.1932,-2.199,-2.2045,-2.212,-2.2216,-2.2246,-2.2338,-2.2419,-2.2545,-2.2597,-2.2671,-2.2669,-2.269,-2.2696,-2.27,-2.27,-2.2589,-2.2689,-2.2689,-2.2688,-2.2688,-2.2688,0,-2.1671,-2.1723,-2.1798,-2.1894,-2.1959,-2.1975,-2.2054,-2.2107,-2.2187,-2.226,-2.2332,-2.2434,-2.2521,-2.2594,-2.2684,-2.2729,-2.2743,-2.2751,-2.2748,-2.276,-2.2697,-2.2675,-2.2739,-2.2739,-2.2739,-2.2739,-2.2739,-2.2739,-2.1718,-2.1809,-2.1845,-2.1966,-2.2019,-2.2108,-2.2152,-2.2213,-2.2271,-2.2383,-2.2455,-2.2502,-2.2575,-2.2671,-2.2752,-2.2771,-2.2803,-2.2809,-2.2831,-2.277,-2.2764,-2.2759,-2.2739,-2.2815,-2.2815,-2.2888,-2.2889,-2.2889]}]]